Weather History for Muncie, IN

Change the Weather History Date:

Sunday, April 6, 2014

  Actual Average Record
Temperature  
Mean Temperature 42 °F 48 °F  
Max Temperature 55 °F 58 °F 84 °F (1988)
Min Temperature 28 °F 38 °F 15 °F (1982)
Degree Days  
Heating Degree Days 23 17  
Month to date heating degree days 109 110  
Since 1 July heating degree days 5971 5280  
Cooling Degree Days 0 0  
Month to date cooling degree days 0 0  
Year to date cooling degree days 0 1  
Moisture  
Dew Point 31 °F    
Average Humidity 67    
Maximum Humidity 92    
Minimum Humidity 41    
Precipitation  
Precipitation 0.00 in 0.12 in 1.34 in (1965)
Month to date precipitation 3.01 0.72  
Year to date precipitation 7.50 8.21  
Sea Level Pressure  
Sea Level Pressure 30.10 in    
Wind  
Wind Speed 6 mph (East)    
Max Wind Speed 15 mph    
Max Gust Speed 22 mph    
Visibility 10 miles    
Events      
T = Trace of Precipitation, MM = Missing Value Source: NWS Daily Summary

Daily Weather History Graph

Daily Weather History Graph

Search for Another Location

Airport:

Trip Planner

Search our weather history database for the weather conditions in past years. The results will help you decide how hot, cold, wet, or windy it might be!

Date:

Astronomy

Apr. 06, 2014 Rise Set
Actual Time 7:17 AM EDT 8:11 PM EDT
Civil Twilight 6:49 AM EDT 8:38 PM EDT
Nautical Twilight 6:17 AM EDT 9:11 PM EDT
Astronomical Twilight 5:43 AM EDT 9:45 PM EDT
Moon 12:17 PM EDT (4/6) 2:06 AM EDT (4/6)
Length of Visible Light 13h 49m
Length of Day
12h 53m
Waxing Crescent, 43% of the Moon is Illuminated
Apr 6
Waxing Crescent
Apr 7
First Quarter
Apr 15
Full
Apr 22
Last Quarter
Apr 29
New

Hourly Weather History & Observations

Time (EDT) Temp. Windchill Dew Point Humidity Pressure Visibility Wind Dir Wind Speed Gust Speed Precip Events Conditions
12:53 AM 35.1 °F - 28.9 °F 78% 30.19 in 10.0 mi Calm Calm - N/A   Clear
1:53 AM 34.0 °F - 28.9 °F 82% 30.18 in 10.0 mi Calm Calm - N/A   Clear
2:53 AM 32.0 °F - 28.0 °F 85% 30.17 in 9.0 mi Calm Calm - N/A   Clear
3:53 AM 32.0 °F - 28.0 °F 85% 30.17 in 10.0 mi Calm Calm - N/A   Clear
4:53 AM 30.0 °F - 27.0 °F 88% 30.17 in 8.0 mi Calm Calm - N/A   Clear
5:53 AM 28.9 °F - 27.0 °F 92% 30.17 in 8.0 mi Calm Calm - N/A   Clear
6:53 AM 28.9 °F - 26.1 °F 89% 30.17 in 9.0 mi Calm Calm - N/A   Clear
7:53 AM 30.0 °F - 27.0 °F 88% 30.19 in 9.0 mi Calm Calm - N/A   Clear
8:53 AM 36.0 °F 30.3 °F 30.9 °F 82% 30.20 in 10.0 mi ESE 6.9 mph - N/A   Clear
9:53 AM 43.0 °F 39.5 °F 30.9 °F 62% 30.19 in 10.0 mi SE 5.8 mph - N/A   Clear
10:53 AM 46.0 °F 42.5 °F 28.0 °F 50% 30.18 in 10.0 mi ESE 6.9 mph - N/A   Clear
11:53 AM 46.9 °F - 28.9 °F 50% 30.16 in 10.0 mi North - - N/A   Clear
12:53 PM 48.0 °F - 30.9 °F 52% 30.14 in 10.0 mi East 10.4 mph - N/A   Clear
1:53 PM 48.9 °F - 30.9 °F 50% 30.10 in 10.0 mi Variable 5.8 mph - N/A   Clear
2:53 PM 51.1 °F - 32.0 °F 48% 30.06 in 10.0 mi East 11.5 mph - N/A   Clear
3:53 PM 52.0 °F - 32.0 °F 47% 30.03 in 10.0 mi ESE 11.5 mph - N/A   Clear
4:53 PM 55.0 °F - 34.0 °F 45% 30.03 in 10.0 mi East 13.8 mph - N/A   Clear
5:53 PM 53.1 °F - 30.9 °F 43% 29.99 in 10.0 mi East 10.4 mph - N/A   Clear
6:53 PM 53.1 °F - 32.0 °F 45% 29.99 in 10.0 mi East 10.4 mph - N/A   Clear
7:53 PM 48.9 °F - 34.0 °F 56% 29.99 in 10.0 mi East 6.9 mph - N/A   Clear
8:53 PM 46.0 °F 42.5 °F 33.1 °F 61% 29.98 in 10.0 mi ENE 6.9 mph - N/A   Clear
9:53 PM 44.1 °F 40.8 °F 34.0 °F 68% 29.98 in 10.0 mi East 5.8 mph - N/A   Clear
10:53 PM 43.0 °F 38.8 °F 35.1 °F 74% 29.97 in 10.0 mi East 6.9 mph - N/A   Clear
11:53 PM 44.1 °F 42.5 °F 34.0 °F 68% 29.96 in 10.0 mi ESE 3.5 mph - N/A   Clear